OTTER PUP 2

导读

OTTER PUP 2(水獭幼崽2号)是美国海星太空公司研发的技术验证卫星,于2025年6月23日搭乘SpaceX“运输者14号”拼车任务在卡纳维拉尔角发射。 它旨在验证无需专用对接装置的航天器自主静电捕获对接技术,将与意大利D-Orbit公司航天器开展对接试验,该技术有望为卫星维修、延寿及轨道碎片处理赋能。

基本信息
目录编号:
64537
目录名称:
OTTER PUP 2
国际标识:
2025-135K
轨道中心:
EARTH
卫星名称:
OTTER PUP 2
卫星全名:
OTTER PUP 2
卫星状态:
在轨 (已飞行446 天)
发射日期:
2025-06-23 UTC
国别 :
美国 (US)
星等 :
--
该卫星已列入 空间交会检测服务 Space Conjunction Data Service (SCDS) ,当前飞行风险评估等级: 无高风险
轨道信息
数据来源 国际轨道数据
星历时间: 2026-09-10T10:40:17+0800
2天前
查看轨道信息
半长轴: 6873.409km
偏心率: 0.00031
轨道倾角: 97.483°
近地点辐角 211.084°
升交点赤经 8.274°
平近点角 149.021°
近地点: 493.141km
远地点: 497.403km
周期: 94.519分钟
每日圈数: 15.235074
详细信息
使用方式:
暂无
2D轨道图
3D轨道图
轨道高度分析图
轨道倾角分析图
轨道综合分析图
查看轨道综合分析图
交会数据列表
事件ID 空间交会对象 最接近时刻(TCA) 交会距离 交会风险概率(CRP) 交会风险指数(CRI) 操作
CDM_260914-200905-268006-453721
2026-09-14T
20:09:53+0000
0.663 km
远距离
5.351154E-5 中风险 0.7
CDM_260911-095306-453706-453924
ELARA 1 (64539)
2026-09-11T
09:53:33+0000
0.684 km
远距离
8.957202E-6 低风险 0.54
CDM_260914-194005-337006-453721
KHAYYAM (53370)
2026-09-14T
19:40:01+0000
1.705 km
极远距离
4.404474E-6 低风险 0.48
CDM_260911-112806-453706-453922
ELARA 1 (64539)
2026-09-11T
11:28:00+0000
0.968 km
远距离
2.779014E-6 低风险 0.44
CDM_260914-042905-407906-453721
2026-09-14T
04:29:58+0000
2.535 km
极远距离
1.701964E-6 低风险 0.4
CDM_260914-081905-532606-453721
HAWK-6C (55326)
2026-09-14T
08:19:35+0000
2.744 km
极远距离
1.473141E-6 低风险 0.38
CDM_260911-130206-453706-453924
ELARA 1 (64539)
2026-09-11T
13:02:28+0000
1.263 km
极远距离
1.192308E-6 低风险 0.37
CDM_260911-143606-453706-453923
ELARA 1 (64539)
2026-09-11T
14:36:56+0000
1.568 km
极远距离
6.52626E-7 极低风险 0.31
CDM_260911-161106-453706-453923
ELARA 1 (64539)
2026-09-11T
16:11:24+0000
1.884 km
极远距离
4.275266E-7 极低风险 0.28
CDM_260911-174506-453706-453922
ELARA 1 (64539)
2026-09-11T
17:45:53+0000
2.210 km
极远距离
3.190488E-7 极低风险 0.25
与全量物体交会距离演化趋势
与全量物体交会风险概率演化趋势